Погода в Аланапе

Россия / Хабаровский край     50°00′48″N   131°59′27″E
темп.,
°C
ветер,
м/с
пор.,
м/с
влажн.,
%
обл.,
%
осадки,
мм/ч
давл.,
гПа
погр.,
м
21 мая, сб
сб2101:00+8всв1199100 0.6 100160
04:00+8всв1199100 0.6 100166
07:00+8в119798 0.2 1001119
10:00+10всв0193100 0.5 1001330
13:00+11сз1293100 2.9 1002215
16:00+11всв019053 5.1 1002155
19:00+13всв13846 1.3 1002328
22:00+8ююз019457 1.9 100510
22 мая, вс
вс2201:00+8в119566 0.0 100511
04:00+7вюв1197100 0.0 100614
07:00+7вюв119583 0.0 100767
10:00+12юв117592 0.0 1007692
13:00+18юз014598 0.2 10061934
16:00+15ююв1247100 0.2 10051158
19:00+15вюв125792 0.0 1005104
22:00+9вюв1179100 0.0 100613
23 мая, пн
пн2301:00+9вюв1286100 0.0 100649
04:00+8вюв2696100 1.2 1006286
07:00+8вюв3797100 3.2 1005400
10:00+9вюв3590100 4.8 1005316
13:00+14вюв2667100 0.9 10031263
16:00+12в3673100 0.9 1002547
19:00+9вюв489096 0.9 1004453
22:00+8всв2498100 2.2 1006229
24 мая, вт
вт2401:00+8св1299100 0.4 1007154
04:00+7св1297100 0.9 100999
07:00+8ссв1195100 0.0 101190
10:00+10ссв128456 0.0 1012481
13:00+19юв015038 0.0 10121446
16:00+20ююв1242100 0.0 10111902
19:00+16в225899 0.0 101263
22:00+9всв2581100 0.0 1015115
25 мая, ср
ср2501:00+6св118943 0.0 101824
04:00+8св1384100 0.0 1019124
07:00+8св128476 0.1 1019146
10:00+14в1265100 0.1 1019800
13:00+19в234029 0.0 10171724
16:00+21ююв222972 0.0 10152363
19:00+20юв12388 0.0 1015135
22:00+11з11545 0.0 101711